Weather History for Sioux City, IA

Change the Weather History Date:

Sunday, March 25, 2012

  Actual Average Record
Temperature  
Mean Temperature 59 °F 40 °F  
Max Temperature 73 °F 52 °F 80 °F (1925)
Min Temperature 44 °F 29 °F 0 °F (1894)
Degree Days  
Heating Degree Days 6 25  
Month to date heating degree days 361 746  
Since 1 July heating degree days 5141 6040  
Cooling Degree Days 0 0  
Month to date cooling degree days 21 0  
Year to date cooling degree days 21 0  
Growing Degree Days 9 (Base 50)    
Moisture  
Dew Point 47 °F    
Average Humidity 69    
Maximum Humidity 90    
Minimum Humidity 46    
Precipitation  
Precipitation 0.00 in 0.08 in 1.36 in (1942)
Month to date precipitation 0.50 1.48  
Year to date precipitation 3.27 2.77  
Snow  
Snow 0.00 in 0.10 in 2.00 in (1983)
Month to date snowfall T 5.5  
Since 1 July snowfall 18.3 32.0  
Snow Depth 0.00 in    
Sea Level Pressure  
Sea Level Pressure 30.07 in    
Wind  
Wind Speed 8 mph (NE)    
Max Wind Speed 18 mph    
Max Gust Speed 23 mph    
Visibility 10 miles    
Events      
T = Trace of Precipitation, MM = Missing Value Source: NWS Daily Summary

Daily Weather History Graph

Daily Weather History Graph

Search for Another Location

Airport:

Trip Planner

Search our weather history database for the weather conditions in past years. The results will help you decide how hot, cold, wet, or windy it might be!

Date:

Astronomy

Mar. 25, 2012 Rise Set
Actual Time 7:19 AM CDT 7:44 PM CDT
Civil Twilight 6:51 AM CDT 8:12 PM CDT
Nautical Twilight 6:17 AM CDT 8:45 PM CDT
Astronomical Twilight 5:43 AM CDT 9:19 PM CDT
Moon 8:27 AM CDT (3/25) 11:05 PM CDT (3/25)
Length of Visible Light 13h 21m
Length of Day
12h 24m
Waxing Crescent, 9% of the Moon is Illuminated
Mar 25
Waxing Crescent
Mar 30
First Quarter
Apr 6
Full
Apr 13
Last Quarter
Apr 21
New

Hourly Weather History & Observations

Time (CDT) Temp. Windchill Dew Point Humidity Pressure Visibility Wind Dir Wind Speed Gust Speed Precip Events Conditions
12:52 AM 59.0 °F - 51.1 °F 75% 30.03 in 10.0 mi NE 11.5 mph - N/A   Clear
1:52 AM 55.9 °F - 51.1 °F 84% 30.05 in 10.0 mi NE 10.4 mph - N/A   Clear
2:52 AM 53.1 °F - 48.9 °F 86% 30.06 in 10.0 mi NE 6.9 mph - N/A   Clear
3:52 AM 51.8 °F - 46.4 °F 82% 30.07 in 10.0 mi NE 6.9 mph - N/A   Clear
4:52 AM 48.9 °F - 45.0 °F 86% 30.08 in 10.0 mi NE 6.9 mph - N/A   Clear
5:52 AM 46.9 °F - 43.0 °F 86% 30.09 in 10.0 mi NE 6.9 mph - N/A   Clear
6:52 AM 45.0 °F 42.6 °F 42.1 °F 90% 30.10 in 10.0 mi NE 4.6 mph - N/A   Clear
7:52 AM 45.0 °F 41.2 °F 41.0 °F 86% 30.12 in 10.0 mi NNE 6.9 mph - N/A   Clear
8:52 AM 46.4 °F 44.3 °F 41.0 °F 81% 30.13 in 10.0 mi NE 4.6 mph - N/A   Clear
9:52 AM 48.9 °F - 42.1 °F 77% 30.14 in 10.0 mi NNE 8.1 mph - N/A   Scattered Clouds
10:52 AM 54.0 °F - 45.0 °F 72% 30.13 in 10.0 mi NE 8.1 mph - N/A   Clear
11:52 AM 59.0 °F - 46.9 °F 64% 30.13 in 10.0 mi ENE 8.1 mph - N/A   Clear
12:52 PM 63.0 °F - 48.9 °F 60% 30.10 in 10.0 mi NE 4.6 mph - N/A   Clear
1:52 PM 66.9 °F - 48.9 °F 52% 30.08 in 10.0 mi Variable 3.5 mph - N/A   Clear
2:52 PM 70.0 °F - 51.1 °F 51% 30.05 in 10.0 mi North 4.6 mph - N/A   Clear
3:52 PM 73.0 °F - 51.1 °F 46% 30.03 in 10.0 mi North 6.9 mph - N/A   Clear
4:52 PM 73.0 °F - 52.0 °F 48% 30.01 in 10.0 mi NE 6.9 mph - N/A   Clear
5:52 PM 71.1 °F - 52.0 °F 51% 30.01 in 10.0 mi East 13.8 mph - N/A   Clear
6:52 PM 68.0 °F - 51.1 °F 55% 30.01 in 10.0 mi ENE 15.0 mph 23.0 mph N/A   Clear
7:52 PM 64.0 °F - 50.0 °F 60% 30.02 in 10.0 mi ENE 12.7 mph - N/A   Clear
8:52 PM 59.0 °F - 48.0 °F 67% 30.04 in 10.0 mi ENE 15.0 mph 20.7 mph N/A   Clear
9:52 PM 57.9 °F - 46.0 °F 65% 30.05 in 10.0 mi ENE 11.5 mph - N/A   Mostly Cloudy
10:52 PM 55.9 °F - 44.1 °F 64% 30.06 in 10.0 mi East 10.4 mph - N/A   Mostly Cloudy
11:52 PM 55.0 °F - 45.0 °F 69% 30.04 in 10.0 mi East 6.9 mph - N/A   Partly Cloudy